KB7YYZ Weather Reports


time (UTC)temp
C
wind
direction
speed
KPH
gust
KPH
rain 1hr
cm
rain 24hr
cm
rain mn
cm
humidity
%
barometer
mb
20260906041530 33 12 1.6 1.6 0.00 0.00 0.00 36 1008.0
20260906040523 33 94 1.6 1.6 0.00 0.00 0.00 36 1007.9
20260906035521 33 8 1.6 1.6 0.00 0.00 0.00 36 1007.9
20260906034520 33 26 1.6 1.6 0.00 0.00 0.00 36 1007.7
20260906033519 33 22 1.6 1.6 0.00 0.00 0.00 36 1007.6
20260906032520 33 22 0.0 0.0 0.00 0.00 0.00 37
20260906031520 33 14 0.0 0.0 0.00 0.00 0.00 36
20260906030521 33 22 1.6 1.6 0.00 0.00 0.00 35 1007.2
20260906025520 34 6 1.6 1.6 0.00 0.00 0.00 35 1007.0
20260906024520 34 22 1.6 1.6 0.00 0.00 0.00 35 1007.0
20260906023519 34 335 1.6 1.6 0.00 0.00 0.00 35 1006.9
20260906022523 35 4 1.6 1.6 0.00 0.00 0.00 34 1006.7
20260906021519 35 345 1.6 1.6 0.00 0.00 0.00 33 1006.7
20260906020521 35 351 1.6 1.6 0.00 0.00 0.00 33 1006.7
20260906015519 35 4 1.6 1.6 0.00 0.00 0.00 33 1006.7
20260906014519 35 314 3.2 3.2 0.00 0.00 0.00 32 1006.7
20260906013540 35 331 1.6 1.6 0.00 0.00 0.00 32 1006.7
20260906012519 36 320 3.2 3.2 0.00 0.00 0.00 32 1006.7
20260906011522 36 330 3.2 3.2 0.00 0.00 0.00 32 1006.7
20260906010519 36 340 3.2 3.2 0.00 0.00 0.00 32 1006.7
20260906005528 36 317 3.2 3.2 0.00 0.00 0.00 32 1006.8
20260906004525 36 283 3.2 3.2 0.00 0.00 0.00 31 1006.8
20260906003523 36 288 3.2 3.2 0.00 0.00 0.00 31 1006.7
20260906002543 37 286 3.2 3.2 0.00 0.00 0.00 32 1006.7
20260906001537 37 309 3.2 3.2 0.00 0.00 0.00 31 1006.6
20260906000555 37 326 4.8 4.8 0.00 0.00 0.00 31 1006.6
20260905235528 37 333 3.2 4.8 0.00 0.00 0.00 31
20260905234520 37 294 3.2 3.2 0.00 0.00 0.00 31 1006.5
20260905233526 37 326 3.2 3.2 0.00 0.00 0.00 31 1006.6
20260905232532 37 275 3.2 3.2 0.00 0.00 0.00 31 1006.6
20260905231531 37 283 3.2 3.2 0.00 0.00 0.00 31 1006.7
20260905230549 38 267 3.2 3.2 0.00 0.00 0.00 31 1006.8
20260905225522 38 300 3.2 3.2 0.00 0.00 0.00 30 1006.8
20260905224524 38 256 3.2 3.2 0.00 0.00 0.00 30 1006.9
20260905223530 38 272 3.2 4.8 0.00 0.00 0.00 30 1007.0
20260905222528 38 310 3.2 3.2 0.00 0.00 0.00 30 1007.1
20260905221542 38 241 1.6 3.2 0.00 0.00 0.00 29 1007.1
20260905220539 38 298 1.6 1.6 0.00 0.00 0.00 30 1007.2
20260905215520 38 269 3.2 3.2 0.00 0.00 0.00 30 1007.5
20260905214547 38 307 3.2 3.2 0.00 0.00 0.00 30 1007.5
20260905213525 38 289 3.2 3.2 0.00 0.00 0.00 31 1007.7
20260905212529 38 278 3.2 3.2 0.00 0.00 0.00 30 1007.7
20260905211526 38 233 3.2 3.2 0.00 0.00 0.00 31 1007.9
20260905210524 38 307 3.2 3.2 0.00 0.00 0.00 31 1008.1
20260905205523 38 260 3.2 3.2 0.00 0.00 0.00 31 1008.1
20260905204521 38 266 3.2 3.2 0.00 0.00 0.00 32 1008.3
20260905203558 38 284 3.2 3.2 0.00 0.00 0.00 32 1008.5
20260905202542 38 303 3.2 3.2 0.00 0.00 0.00 32 1008.7
20260905201527 38 313 3.2 3.2 0.00 0.00 0.00 32 1008.7
20260905200520 38 270 3.2 3.2 0.00 0.00 0.00 32 1008.8
20260905195526 38 258 3.2 3.2 0.00 0.00 0.00 32 1009.0
20260905194520 37 277 3.2 3.2 0.00 0.00 0.00 32 1009.1
20260905193540 38 286 3.2 3.2 0.00 0.00 0.00 33 1009.3
20260905192525 37 273 3.2 3.2 0.00 0.00 0.00 33 1009.5
20260905191540 37 304 3.2 3.2 0.00 0.00 0.00 34 1009.5
20260905190523 37 277 1.6 3.2 0.00 0.00 0.00 34 1009.7
20260905185530 37 339 3.2 3.2 0.00 0.00 0.00 35 1009.9
20260905184535 37 346 3.2 3.2 0.00 0.00 0.00 35 1010.0
20260905183520 37 326 3.2 3.2 0.00 0.00 0.00 36 1010.1
20260905182536 37 278 3.2 3.2 0.00 0.00 0.00 36 1010.1
20260905181521 36 317 1.6 3.2 0.00 0.00 0.00 36 1010.2
20260905180527 36 6 1.6 3.2 0.00 0.00 0.00 36 1010.3
20260905175530 36 300 1.6 1.6 0.00 0.00 0.00 38 1010.3
20260905174527 35 301 1.6 1.6 0.00 0.00 0.00 39 1010.4
20260905173546 35 237 1.6 1.6 0.00 0.00 0.00 39 1010.5
20260905172544 35 356 1.6 1.6 0.00 0.00 0.00 41 1010.5
20260905171524 35 228 0.0 1.6 0.00 0.00 0.00 42 1010.6
20260905170519 34 229 1.6 1.6 0.00 0.00 0.00 42 1010.7
20260905165536 33 236 3.2 3.2 0.00 0.00 0.00 43 1010.8
20260905164544 33 264 0.0 1.6 0.00 0.00 0.00 44 1010.7
20260905163545 33 253 0.0 1.6 0.00 0.00 0.00 45 1010.7
20260905162520 33 232 0.0 1.6 0.00 0.00 0.00 46 1010.7
20260905161547 32 165 0.0 1.6 0.00 0.00 0.00 47 1010.7
20260905160553 32 231 0.0 1.6 0.00 0.00 0.00 47 1010.7
20260905155526 32 130 0.0 1.6 0.00 0.00 0.00 49 1010.6
20260905154601 31 147 0.0 1.6 0.00 0.00 0.00 49 1010.6
20260905153544 31 225 0.0 1.6 0.00 0.00 0.00 50 1010.7
20260905152524 30 26 1.6 1.6 0.00 0.00 0.00 51 1010.7
20260905151551 30 155 1.6 1.6 0.00 0.00 0.00 52
20260905150523 30 192 0.0 1.6 0.00 0.00 0.00 53 1010.6
20260905145538 29 153 1.6 1.6 0.00 0.00 0.00 54 1010.6
20260905144535 29 146 1.6 1.6 0.00 0.00 0.00 54
20260905143543 28 205 0.0 0.0 0.00 0.00 0.00 54 1010.6
20260905142527 28 180 0.0 0.0 0.00 0.00 0.00 55 1010.5
20260905141520 28 0.0 0.0 0.00 0.00 0.00 55 1010.4
20260905140527 27 0.0 0.0 0.00 0.00 0.00 56 1010.3
20260905135525 27 0.0 0.0 0.00 0.00 0.00 56 1010.2
20260905134522 27 0.0 0.0 0.00 0.00 0.00 56 1010.0
20260905133520 26 0.0 0.0 0.00 0.00 0.00 56 1009.9
20260905132531 26 0.0 0.0 0.00 0.00 0.00 56 1009.8
20260905131531 26 0.0 0.0 0.00 0.00 0.00 56 1009.6
20260905130704 27 0.0 0.0 0.00 0.00 0.00 56 1009.6
20260905125522 27 0.0 0.0 0.00 0.00 0.00 55 1009.5
20260905124542 27 0.0 0.0 0.00 0.00 0.00 55 1009.5
20260905123527 27 0.0 0.0 0.00 0.00 0.00 55 1009.4
20260905122528 27 0.0 0.0 0.00 0.00 0.00 55 1009.3
20260905121539 27 0.0 0.0 0.00 0.00 0.00 55 1009.2
20260905120545 27 0.0 0.0 0.00 0.00 0.00 55 1009.2
20260905115555 27 0.0 0.0 0.00 0.00 0.00 54 1009.1
20260905114524 27 0.0 0.0 0.00 0.00 0.00 54 1009.2
20260905113525 27 0.0 0.0 0.00 0.00 0.00 54 1009.1
20260905112539 27 0.0 0.0 0.00 0.00 0.00 54 1009.1
20260905111536 28 0.0 0.0 0.00 0.00 0.00 54 1009.1
20260905110554 28 0.0 0.0 0.00 0.00 0.00 54 1009.1
20260905105521 28 0.0 0.0 0.00 0.00 0.00 54 1008.9
20260905104521 28 0.0 0.0 0.00 0.00 0.00 54 1009.0
20260905103547 28 0.0 0.0 0.00 0.00 0.00 54 1009.0
20260905102525 28 0.0 0.0 0.00 0.00 0.00 54 1009.0
20260905101524 28 0.0 0.0 0.00 0.00 0.00 54 1009.0
20260905100522 28 0.0 0.0 0.00 0.00 0.00 54 1009.0
20260905095519 28 0.0 0.0 0.00 0.00 0.00 53 1009.1
20260905094530 28 0.0 0.0 0.00 0.00 0.00 53 1009.0
20260905093521 28 0.0 0.0 0.00 0.00 0.00 53 1009.0
20260905092545 28 0.0 0.0 0.00 0.00 0.00 52 1009.1
20260905091539 29 0.0 0.0 0.00 0.00 0.00 51 1009.1
20260905090521 29 0.0 0.0 0.00 0.00 0.00 51 1009.1
20260905085530 29 0.0 0.0 0.00 0.00 0.00 51 1009.0
20260905084534 29 0.0 0.0 0.00 0.00 0.00 51 1009.1
20260905083521 29 0.0 0.0 0.00 0.00 0.00 52 1009.2
20260905082556 29 0.0 0.0 0.00 0.00 0.00 51 1009.1
20260905081542 30 0.0 0.0 0.00 0.00 0.00 50 1009.4
20260905080547 30 0.0 0.0 0.00 0.00 0.00 50 1009.4
20260905075531 30 0.0 0.0 0.00 0.00 0.00 49 1009.5
20260905074534 30 0.0 0.0 0.00 0.00 0.00 49 1009.5
20260905073534 30 0.0 0.0 0.00 0.00 0.00 49 1009.4
20260905072532 30 0.0 0.0 0.00 0.00 0.00 48 1009.2
20260905071524 30 0.0 0.0 0.00 0.00 0.00 48 1009.2
20260905070529 31 0.0 0.0 0.00 0.00 0.00 48 1009.1
20260905065527 31 178 0.0 0.0 0.00 0.00 0.00 47 1009.1
20260905064613 31 33 0.0 0.0 0.00 0.00 0.00 47 1009.1
20260905063524 31 0.0 0.0 0.00 0.00 0.00 46 1009.1
20260905062539 31 0.0 0.0 0.00 0.00 0.00 46 1009.1
20260905061546 31 164 0.0 0.0 0.00 0.00 0.00 45 1009.1
20260905060531 31 89 0.0 1.6 0.00 0.00 0.00 45 1009.0
20260905055526 31 0.0 0.0 0.00 0.00 0.00 45 1008.9
20260905054543 31 0.0 0.0 0.00 0.00 0.00 45 1008.9
20260905053550 31 0.0 0.0 0.00 0.00 0.00 45 1008.7
20260905052522 31 0.0 0.0 0.00 0.00 0.00 44 1008.6
20260905051528 32 0.0 0.0 0.00 0.00 0.00 43 1008.6
20260905050524 32 0.0 0.0 0.00 0.00 0.00 43 1008.5
20260905045541 32 0.0 0.0 0.00 0.00 0.00 43 1008.5
20260905044536 32 0.0 0.0 0.00 0.00 0.00 42 1008.5
20260905043519 32 0.0 0.0 0.00 0.00 0.00 42 1008.5
20260905042525 32 0.0 0.0 0.00 0.00 0.00 42 1008.5